Location: Aressy
(43.2833°N, 0.3167°W)
Time: 21:36:56
(UTC+00:00)

FengYun 1-2 T - Pass Details

Date: 28 January 2021
Orbit: 846 x 881 km, 98.7° (Epoch: 02 March)

Event Time Altitude Azimuth Distance (km) Brightness Sun altitude
Rises 17:29:52 0° 160° (SSE) 3,429 7.4 -4.5°
Reaches altitude 10° 17:32:13 10° 159° (SSE) 2,501 6.7 -4.9°
Maximum altitude 17:37:47 79° 74° (ENE) 892 4.3 -5.9°
Drops below altitude 10° 17:43:26 10° 349° (NNW) 2,539 6.6 -6.8°
Sets 17:45:51 0° 348° (NNW) 3,485 7.3 -7.2°
